Location: Andershausen
(51.8462°N, 9.8595°E)
Time: 06:24:13
(UTC+00:00)

MOS 1 Rocket - Pass Details

Date: 18 November 2025
Orbit: 610 x 813 km, 97.4° (Epoch: 11 December)

Event Time Altitude Azimuth Distance (km) Brightness Sun altitude
Rises 16:02:10 0° 129° (SE) 2,899 6.2 -5.8°
Reaches altitude 10° 16:04:36 10° 116° (ESE) 2,017 5.3 -6.2°
Maximum altitude 16:08:10 25° 61° (ENE) 1,313 4.2 -6.7°
Drops below altitude 10° 16:11:54 10° 7° (N) 2,112 5.5 -7.2°
Sets 16:14:30 0° 355° (N) 3,067 6.5 -7.6°
